map of EGI home
EGI - Airport
Location
City:  Crestview, Florida, United States
Name:Duke Field
Old (Alt.):Eglin AF Auxiliary Number 3
ICAO:KEGI
IATA:EGI
FAA LID:EGI

Details
Type:Airport (Airfield)
Use:Military
Latitude:3038'55"N (30.648587)
Longitude:8631'19"W (-86.521958)
Datum:WGS 1984
Elevation:195 ft (59 m)
Variation:3.16W (WMM2015 magnetic declination)
-0.10 annual change
Runways:2
Longest:8025 × 150 ft (2446 × 45.5 m), paved

Time
Time Zone:UTC-6 (DST-5)
Local Time:

Weather
METAR:KEGI 280758Z AUTO 00000KT 10SM CLR 21/21 A2990 RMK AO2 SLP126 T02140206 $
TAF:KEGI 280700Z 2807/2913 32006KT 9999 FEW030 FEW250 QNH2990INS TX30/2821Z TN20/2812Z

Related Locations
Nearby:
Farthest:USL: 11195 mi / 18017 km
Useless Loop, WA, AU

Find:

   beyond  
but within

Other Information
Maps:
NOTAMs:
Links:
Sources:

  
flag of United States
flag of Florida
  

Airport Diagram

Airport diagram for EGI

Airport diagram PDF

Sectional Chart

Flight Planning
at skyvector.com

Satellite Image

Google Maps Satellite view

 

Copyright © 2004-2016 Karl L. Swartz. All rights reserved.
The Great Circle Mapper name and logo are trademarks of the Great Circle Mapper.
All other trademarks mentioned herein belong to their respective owners.
Please see credits for attibutions and further copyright information.

  Follow gcmap on Facebook Follow gcmap on Twitter Follow gcmap on Google+ GCmap on LinkedIn

hCard Microformat

Geo Microformat